Regional Weather Roundup
Issued by NWS Sterling, VA

Home | Current Version | Previous Version | Graphics & Text | Print | Product List | Glossary On
Versions: 1 2 3 4 5 6 7 8 9 10 11 12 13 14 15 16 17 18 19 20 21 22 23 24 25 26 27 28 29 30 31 32 33 34 35 36 37 38 39 40 41 42 43 44 45 46 47 48 49 50
000
ASUS41 KLWX 270711
RWRLWX

REGIONAL WEATHER ROUNDUP
NATIONAL WEATHER SERVICE BALTIMORE MD/WASHINGTON DC
300 AM EDT TUE JUN 27 2017

Note: "FAIR" indicates few or no clouds below 12,000 feet
with no significant weather and/or obstructions to visibility.
 TC=TEMPERATURE CELSIUS

 * =Non NWS site. Station does not report precipitation (e.g. rain,
    snow, etc.), thunder, or fog.

DCZ001-MDZ009-015-VAZ040>042-051-053>054-270800-
WASHINGTON METRO

CITY           SKY/WX    TMP DP  RH WIND       PRES   REMARKS
WASHINGTON NAT PTCLDY    71  51  49 N7        29.99S
DULLES         PTCLDY    67  48  50 NW3       30.00S
ANDREWS AFB    PTCLDY    64  55  74 CALM      29.98S
FT BELVOIR     PTCLDY    60  55  84 SE3       29.99S
QUANTICO       CLEAR     64  60  87 NW7       30.00S
COLLEGE PARK*  PTCLDY    64  52  64 CALM      29.98F
LEESBURG*      PTCLDY    64  54  68 CALM      30.01S
MANASSAS*      PTCLDY    58  55  90 NW3       30.01S
GAITHERSBURG*  PTCLDY    60  51  72 CALM      30.01S

$$

MDZ006>007-011-014-270800-
BALTIMORE METRO

CITY           SKY/WX    TMP DP  RH WIND       PRES   REMARKS
BWI AIRPORT    CLOUDY    68  53  58 CALM      29.98S
MD SCIENCE CTR   N/A     73  53  49 MISG      29.99S
MARTIN STATE   CLOUDY    68  55  64 NW5       29.99S
ANNAPOLIS      CLEAR     67  61  81 W7        29.98S
FORT MEADE*    PTCLDY    59  57  94 CALM      30.01R

$$

MDZ012-015-019>023-270800-
MARYLAND EASTERN SHORE

CITY           SKY/WX    TMP DP  RH WIND       PRES   REMARKS
OCEAN CITY     CLEAR     71  65  81 S5        29.99F
SALISBURY      CLEAR     64  61  90 S3        29.98F
BAY BRIDGE AP* PTCLDY    72  59  64 NW5       29.98S
CAMBRIDGE*     PTCLDY    64  61  88 CALM      29.98S
EASTON*        CLEAR     67  61  78 CALM      30.01S

$$

MDZ017>025-270800-
SOUTHERN MARYLAND

CITY           SKY/WX    TMP DP  RH WIND       PRES   REMARKS
PATUXENT RIVER CLEAR     68  60  75 S6        29.98S
ST INIGOES     CLEAR     70  62  76 SW6       29.98S
LEONARDTOWN*   CLEAR     63  59  88 CALM      30.00S

$$

MDZ003>005-270800-
NORTH CENTRAL MARYLAND

CITY           SKY/WX    TMP DP  RH WIND       PRES   REMARKS
FREDERICK*     PTCLDY    61  54  77 CALM      30.02S
HAGERSTOWN APT MOCLDY    67  49  52 W5        30.00F
WESTMINSTER*   MOCLDY    64  55  72 CALM      30.00F

$$

MDZ501>502-270800-
WESTERN MARYLAND

CITY           SKY/WX    TMP DP  RH WIND       PRES   REMARKS
OAKLAND*       NOT AVBL
CUMBERLAND*    MOCLDY    61  50  67 SE3       30.05S

$$

VAZ025>031-270800-
SHENANDOAH VALLEY

CITY           SKY/WX    TMP DP  RH WIND       PRES   REMARKS
WINCHESTER*    CLOUDY    64  46  52 W3        30.02S
FRONT ROYAL*   PTCLDY    57  52  82 CALM      30.03R
LURAY*         PTCLDY    57  52  82 W3        30.04S
NEW MARKET*    PTCLDY    54  51  89 CALM      30.04S
STAUNTON*      PTCLDY    53  49  87 CALM      30.07S
WAYNESBORO*    PTCLDY    55  51  87 N5        30.05F

$$

WVZ021-048>050-054>055-270800-
EASTERN WEST VIRGINIA PANHANDLE

CITY           SKY/WX    TMP DP  RH WIND       PRES   REMARKS
MARTINSBURG    CLOUDY    60  51  72 SW3       30.00F
PETERSBURG*    MOCLDY    57  54  90 CALM      30.04F

$$

VAZ036>039-050-270800-
CENTRAL FOOTHILLS

CITY           SKY/WX    TMP DP  RH WIND       PRES   REMARKS
CHARLOTTESVILL MOCLDY    67  50  54 CALM      30.01F
CULPEPER*      CLOUDY    58  57  96 CALM      30.02S
ORANGE*        PTCLDY    55  54  94 CALM      30.02S
GORDONSVILLE*  PTCLDY    56  55  97 CALM      30.01S
WARRENTON*     MOCLDY    56  52  86 CALM      30.01R

$$

VAZ055>057-270800-
NORTH AND CENTRAL PIEDMONT

CITY           SKY/WX    TMP DP  RH WIND       PRES   REMARKS
FREDERICKSBRG* PTCLDY    61  56  84 CALM      29.99S
STAFFORD*      PTCLDY    55  55 100 CALM      30.04S

$$

NCZ024-NYZ072-PAZ021-071-VAZ022-071-270800-
OTHER REGIONAL OBSERVATIONS

CITY           SKY/WX    TMP DP  RH WIND       PRES   REMARKS
NEW YORK CITY  CLOUDY    68  49  50 N8        30.03R
PHILADELPHIA   CLOUDY    64  57  78 NW8       30.01R
PITTSBURGH     PTCLDY    58  51  78 SW3       30.02R
ROANOKE        CLEAR     66  49  54 CALM      30.07F
RICHMOND       PTCLDY    64  56  75 S3        29.99S
RALEIGH        PTCLDY    64  58  80 CALM      30.02S

$$

ANZ530>537-270800-
MARINE OBSERVATIONS

STATION/POSITION TIME  TEMP    WIND        PRES
                       AIR SEA DIR/SP/G
                 (UTC) (F)     (DEG/KT/KT) (MB)
THOMAS PT LIGHT  0700   72 77  280/  8/  9   N/A
BALT KEY BRIDGE  0648   73     330/  9/ 11 1014.7S
COVE POINT       0648   71     280/  8/ 10 1015.6F
LEWISETTA        0648   70 79  230/  8/  9 1015.2F
SOLOMONS ISLAND  0648   71 79  300/  4/  7   N/A
PINEY POINT      0648          270/  7/  9   N/A

$$




USA.gov is the U.S. government's official web portal to all federal, state and local government web resources and services.